GFSSW_925_temp_060.txt.gz
Temp
21 21 21 22 23 23 24 25 25 26 26 26 26 27 28 29 30 30 29 34 34 33 32 31 30 30 30 30 31 30 28 29 32 33 33 33 32 33 32 31 31 31 30 29 27
21 21 21 22 22 23 24 25 25 26 26 26 27 27 28 29 29 27 35 33 34 33 33 33 33 33 30 33 32 29 27 31 33 33 32 33 34 32 32 31 30 29 30 29 27
20 21 21 21 22 23 24 24 25 25 26 26 27 27 28 29 26 31 36 35 33 34 33 32 34 33 34 34 33 30 30 31 33 33 33 30 31 31 30 30 29 28 29 29 28
19 20 21 21 21 23 24 25 25 26 26 26 27 27 28 27 31 35 35 34 34 33 33 33 33 33 33 33 34 33 34 33 33 32 32 31 31 32 31 30 31 30 30 29 28
18 19 20 21 21 22 23 24 25 26 26 26 27 27 27 26 29 36 35 35 33 33 32 33 33 33 33 34 34 34 35 36 34 33 32 31 31 32 32 32 31 31 30 29 28
17 19 20 21 21 22 23 25 25 26 26 26 26 26 26 28 35 35 35 34 33 32 33 32 33 34 33 34 33 35 35 36 36 32 33 31 32 33 32 32 31 31 29 29 28
18 19 19 20 21 22 23 25 26 27 27 27 26 26 24 28 35 35 35 36 35 34 32 34 35 34 34 34 35 35 34 35 34 32 32 32 31 31 31 31 31 31 30 30 29
18 18 19 20 21 22 24 25 27 27 28 27 27 25 25 34 34 34 34 35 36 35 35 36 37 35 35 34 33 33 30 30 33 33 32 33 31 32 30 31 30 31 31 30 28
18 18 19 20 21 22 24 26 28 29 28 27 26 25 26 33 34 36 35 33 36 36 37 37 36 34 33 31 28 29 30 32 33 34 34 32 33 32 28 30 29 28 29 30 29
17 18 19 20 21 22 24 27 28 28 26 25 25 26 28 33 35 36 36 36 34 35 33 35 29 30 28 28 28 30 31 32 33 36 35 32 32 32 30 30 27 28 27 29 28
16 17 19 20 21 21 24 26 24 25 26 27 28 27 30 34 34 36 36 36 34 34 32 32 30 28 30 29 32 32 33 35 34 35 34 33 32 32 31 31 27 27 29 28 27
15 17 18 20 21 22 23 20 25 28 24 27 28 29 31 32 31 33 37 34 33 31 31 29 28 30 31 32 32 32 33 33 34 35 34 33 33 33 31 30 29 29 27 27 26
16 17 18 20 22 22 21 24 28 28 24 26 28 29 30 32 31 32 33 32 32 31 31 28 31 33 33 32 33 32 31 32 34 35 34 33 30 30 30 30 30 30 29 28 29
15 16 17 20 22 21 22 26 27 27 21 26 28 30 33 31 31 34 34 33 32 31 30 30 32 33 33 33 33 30 33 34 34 33 30 32 28 29 28 29 30 30 29 29 27
15 16 17 17 17 18 26 26 27 27 24 30 30 34 31 31 33 34 36 34 32 32 30 30 33 33 33 33 33 32 32 33 33 31 29 31 28 28 29 29 29 29 29 29 27
15 16 17 16 16 23 23 25 27 22 23 29 34 32 32 31 32 34 34 33 33 32 32 31 33 34 33 35 35 36 36 29 28 26 28 29 29 28 27 30 30 28 30 31 28
16 17 16 15 18 23 23 22 21 21 28 30 32 31 30 31 32 32 33 32 29 31 29 31 31 32 35 35 32 32 27 26 28 26 27 28 30 28 29 31 31 30 30 31 30
16 18 19 20 22 21 21 19 22 25 26 30 31 30 31 31 30 32 31 29 30 30 27 29 28 33 35 34 32 33 27 25 29 27 28 29 30 31 28 28 32 31 31 31 28
17 18 18 23 23 20 17 18 20 24 29 29 29 30 30 30 31 30 29 28 30 29 28 26 28 33 34 35 33 31 31 28 27 27 26 27 29 29 29 29 28 30 27 27 27
15 14 18 24 22 20 17 18 21 26 28 27 28 29 28 29 29 30 30 30 32 30 29 29 29 31 34 35 32 32 31 31 24 30 28 27 29 27 30 29 27 25 24 22 20
13 14 23 24 22 16 17 19 24 27 28 28 29 29 29 29 28 29 30 31 31 32 28 28 28 32 34 32 30 31 31 28 26 24 26 25 26 24 24 25 26 23 22 20 18
12 16 23 24 17 15 18 22 25 27 27 26 29 29 29 28 28 29 30 32 31 31 30 28 26 28 29 32 34 32 30 26 25 28 24 24 26 22 22 23 24 24 24 22 20
10 14 24 25 18 17 19 24 25 26 26 26 29 27 29 29 29 29 29 31 31 30 31 29 25 26 28 29 30 32 31 30 25 22 25 25 24 22 20 23 23 23 23 23 22
11 16 18 17 16 21 22 22 24 27 27 28 28 28 26 27 27 28 28 30 30 29 26 26 23 25 25 29 29 32 32 30 26 26 26 25 23 22 21 22 22 23 22 22 20
11 16 20 18 19 19 22 22 23 25 28 29 27 28 27 27 25 27 26 27 28 26 26 26 27 29 28 29 32 32 32 31 30 28 29 24 24 23 21 21 21 23 24 22 23
14 17 17 19 20 20 18 22 25 25 27 27 27 27 26 26 26 25 25 27 27 26 26 23 26 27 29 29 30 31 30 31 31 30 26 25 25 22 21 21 23 25 23 22 24
16 18 15 18 20 22 22 25 26 26 27 25 25 25 24 25 26 25 24 24 26 27 25 24 24 23 26 27 28 27 31 31 31 31 27 26 26 23 21 21 23 22 23 25 27

GFSSW_925_temp_063.txt.gz
Temp
20 21 21 21 21 22 23 24 24 24 24 25 26 27 28 29 31 30 29 33 33 32 31 29 26 27 28 27 29 28 27 29 31 32 30 31 30 31 31 29 30 30 28 27 25
20 20 21 21 21 22 23 24 25 25 26 26 26 27 28 29 29 27 34 33 32 32 31 29 29 28 27 28 29 28 26 31 32 31 31 33 32 31 29 29 28 28 27 26 24
19 20 21 21 22 22 23 24 24 25 26 26 26 27 28 28 26 31 34 34 33 32 32 32 32 31 30 31 31 28 29 31 33 32 32 32 32 31 29 28 28 27 25 26 25
18 20 21 21 22 22 23 24 25 25 26 26 26 27 28 26 32 35 34 34 32 32 32 32 32 32 32 33 32 31 31 32 32 32 32 32 30 30 30 30 29 28 27 26 25
18 19 19 20 21 22 23 24 25 26 26 26 26 26 28 26 29 34 34 33 33 32 32 32 32 32 32 32 32 31 33 32 33 31 32 31 31 31 30 30 29 29 28 26 26
18 18 19 20 21 22 23 24 25 26 26 26 26 26 25 28 34 34 34 34 33 32 31 31 32 32 31 32 33 33 33 33 32 31 32 31 30 31 31 30 29 29 28 28 27
18 18 19 19 20 21 23 24 25 26 27 27 26 25 23 27 34 33 33 34 33 34 31 33 33 33 33 33 33 33 32 30 30 30 30 31 31 30 29 29 29 28 28 28 27
16 17 18 19 20 21 23 24 26 27 28 27 26 24 24 32 33 33 33 33 33 33 33 34 33 31 32 33 31 31 29 29 32 31 30 31 29 30 28 29 28 29 29 28 27
16 17 18 19 20 21 23 25 26 27 27 26 25 24 25 32 32 35 34 33 34 34 34 34 34 31 31 29 28 28 29 30 31 31 31 31 30 30 27 29 28 29 29 29 28
16 17 18 19 20 21 24 26 26 25 24 23 24 25 28 33 33 34 35 34 32 33 32 33 27 28 25 27 28 30 30 31 30 32 31 30 29 28 28 29 28 28 28 28 28
15 17 18 19 20 21 24 25 22 24 25 26 28 27 28 32 33 34 34 33 33 32 31 29 29 28 29 28 31 31 30 30 32 33 31 30 31 30 29 29 28 26 28 27 28
15 16 18 19 20 22 22 20 22 22 21 25 25 26 29 30 29 31 34 33 32 30 30 28 27 29 30 30 30 30 30 30 31 33 31 31 32 30 28 30 30 28 27 27 26
14 16 17 19 21 21 20 22 23 22 22 24 26 27 28 29 28 30 32 32 32 31 30 28 29 31 31 31 30 30 30 29 31 32 33 33 30 30 29 29 29 29 28 27 26
14 15 17 19 20 19 20 23 24 23 20 25 26 27 29 29 31 31 33 32 31 30 29 29 30 31 31 30 29 29 30 32 32 32 29 32 28 28 29 28 28 28 26 26 26
14 15 16 16 16 16 22 24 25 24 23 29 29 31 30 30 32 33 32 31 30 31 29 29 32 32 31 31 31 31 30 31 31 30 29 29 27 27 27 29 27 28 27 26 26
15 15 16 15 15 21 22 24 25 21 22 27 30 31 30 31 31 33 33 32 31 31 30 29 31 32 31 33 32 33 31 26 24 24 26 28 28 27 27 28 29 28 28 28 26
15 16 15 14 17 21 22 21 20 20 25 28 30 30 29 29 31 31 31 30 28 29 28 29 30 31 33 33 32 29 26 25 27 26 26 26 26 27 29 28 28 29 28 27 27
16 18 19 19 20 20 21 19 21 23 23 27 28 29 31 31 31 31 30 28 29 28 25 27 28 31 33 32 32 31 27 25 28 26 27 27 29 30 29 27 26 29 28 25 24
17 17 16 21 21 18 16 18 19 22 26 27 27 29 27 28 28 30 27 27 28 27 27 25 27 30 32 32 32 31 29 27 23 23 26 25 27 29 28 25 25 24 22 22 22
14 13 15 20 20 19 16 17 20 22 26 26 27 28 28 27 28 28 28 29 29 28 28 28 28 29 32 33 32 31 28 28 23 27 28 26 27 27 27 25 24 22 22 21 22
13 13 19 20 21 15 16 17 21 24 27 26 26 27 28 28 27 28 29 30 30 30 26 25 27 30 32 31 31 29 28 24 23 23 25 25 25 23 24 25 23 22 22 22 22
10 16 19 19 17 11 16 19 23 25 25 25 25 24 26 28 28 28 29 30 29 28 27 25 24 26 28 29 30 30 29 25 24 27 22 23 26 23 21 21 23 22 22 21 21
10 12 19 19 17 16 17 21 23 24 25 25 26 27 27 27 28 28 28 29 28 27 29 26 24 26 26 27 29 31 30 24 21 20 22 24 25 22 20 21 22 22 22 21 21
10 16 16 16 14 18 21 20 22 25 25 25 25 26 26 26 25 27 26 29 27 26 23 23 21 25 26 27 28 31 31 28 25 24 24 24 27 22 22 21 21 21 22 21 21
9 16 17 17 18 18 19 21 21 22 25 23 25 27 26 26 25 25 25 25 27 24 25 24 25 27 26 27 30 30 30 29 29 28 28 28 24 24 23 23 22 21 21 21 22
12 15 15 17 17 18 16 19 21 23 24 26 26 25 25 24 25 25 25 26 26 25 24 21 24 26 28 28 28 31 30 30 30 27 26 25 25 23 22 21 21 22 22 23 23
12 14 14 16 18 19 19 20 24 25 25 25 25 23 24 24 24 23 22 23 25 27 24 23 22 22 26 25 27 27 28 29 29 25 24 25 26 23 22 21 21 22 22 23 24

GFSSW_925_temp_069.txt.gz
Temp
20 20 20 21 21 22 23 24 24 24 25 25 26 27 27 28 28 26 29 32 30 27 26 23 24 24 25 27 28 29 32 33 33 33 33 32 31 31 31 30 30 30 30 29 25
19 19 20 21 21 22 23 23 24 24 25 26 26 27 28 28 26 26 32 32 31 28 25 25 26 25 28 29 30 31 33 34 34 35 34 32 32 31 31 30 30 29 27 26 25
18 18 19 20 21 22 23 23 24 24 25 26 27 27 28 28 28 33 32 32 32 30 29 28 28 29 30 31 32 31 34 35 35 35 35 34 32 32 31 30 31 30 28 27 26
18 18 19 20 21 22 22 23 24 25 25 26 27 27 28 27 32 32 31 31 30 30 29 30 29 31 32 33 33 33 34 34 36 34 34 33 33 32 32 34 33 31 29 27 27
18 18 18 19 20 21 22 23 24 25 25 26 27 27 28 29 32 32 31 31 30 30 31 32 32 33 34 34 33 33 35 36 35 34 34 33 33 33 31 32 31 30 28 28 28
17 18 18 19 19 21 22 24 24 25 26 27 27 27 26 29 31 31 31 30 29 29 30 31 33 33 34 33 34 35 35 35 34 33 34 33 33 32 34 31 30 29 28 29 28
17 17 18 18 19 21 22 24 25 25 26 27 27 26 26 30 31 30 30 30 30 30 32 31 32 34 33 34 34 34 34 34 34 32 33 34 33 32 33 31 30 30 29 29 28
16 17 18 18 19 21 23 24 25 26 27 27 26 25 29 30 30 29 29 30 31 31 31 31 31 33 33 33 33 34 33 35 34 33 32 34 36 34 33 32 31 30 30 28 28
15 16 17 18 19 21 23 24 25 25 25 24 23 25 30 30 29 31 31 32 30 30 30 31 32 32 32 33 34 33 35 34 35 33 33 33 35 32 32 32 31 30 30 29 29
14 15 17 18 19 20 23 25 24 23 23 22 23 27 29 32 31 31 31 30 32 32 32 32 31 32 32 34 34 33 33 34 33 34 32 33 34 35 31 31 32 31 30 30 30
14 14 16 18 19 20 23 24 25 26 23 28 28 27 29 30 30 31 31 31 32 33 33 30 33 33 34 33 33 32 32 32 34 34 34 35 34 35 33 31 31 31 30 30 31
14 14 15 18 19 20 20 22 20 19 24 25 24 25 26 28 30 31 31 33 32 32 30 31 32 32 31 31 32 32 32 33 34 33 33 35 34 35 35 33 33 32 31 31 31
13 14 15 18 19 19 18 19 19 19 23 26 26 28 29 29 30 31 32 32 32 31 31 33 33 31 31 32 32 33 33 33 33 33 33 33 34 35 36 33 33 33 32 31 31
13 13 14 17 18 17 18 19 19 19 25 28 28 29 28 29 30 31 33 33 32 33 30 32 32 32 32 32 32 33 34 33 34 33 34 32 34 33 34 34 34 33 32 31 31
13 14 14 14 14 15 19 20 20 20 26 29 29 28 27 30 32 31 30 33 33 31 31 32 31 30 31 33 32 34 32 32 32 32 32 32 33 36 31 34 35 34 33 32 31
13 14 14 13 12 19 19 20 20 25 24 28 29 30 29 29 31 31 31 32 32 31 30 33 31 32 34 33 32 31 32 30 29 32 33 32 33 36 36 35 35 32 31 31 31
14 15 12 8 17 19 19 20 24 24 26 28 29 29 29 30 30 31 31 31 32 30 31 31 32 32 32 33 31 32 32 32 32 33 33 29 31 35 35 32 30 30 30 31 30
14 16 16 16 17 16 17 23 23 25 26 26 28 28 29 29 30 31 30 31 30 31 31 31 31 32 32 33 34 32 33 33 31 32 34 28 32 35 32 29 28 27 29 31 30
15 15 13 16 16 15 21 23 24 24 25 26 28 29 29 29 29 29 31 31 32 31 32 30 31 31 31 33 34 31 32 31 30 26 32 32 32 34 33 31 28 28 27 28 28
12 10 13 15 15 15 21 22 23 23 25 26 26 27 28 29 29 29 29 30 31 30 31 31 31 32 32 32 30 33 31 32 31 30 31 32 31 34 34 33 29 28 28 26 26
10 16 15 14 15 20 22 22 22 24 24 26 26 26 27 28 28 29 29 30 30 29 29 30 31 32 31 33 33 31 32 29 31 30 33 32 33 33 32 31 29 28 27 27 26
10 19 14 15 20 15 21 21 21 25 25 26 25 26 27 27 28 29 30 30 28 29 29 30 32 31 33 31 30 32 32 32 33 30 29 31 34 30 29 28 28 28 27 27 26
13 14 14 15 20 20 19 21 22 24 25 25 25 26 26 27 27 28 29 29 28 28 29 28 30 31 32 31 30 32 30 30 28 29 29 32 34 28 27 26 26 27 27 26 26
12 18 18 17 15 19 21 22 22 23 24 24 25 26 26 27 26 28 29 29 28 27 23 27 26 30 33 33 32 31 30 29 31 32 30 32 33 31 28 27 28 26 26 26 26
12 17 16 20 20 19 20 21 22 22 24 24 25 25 26 26 26 27 27 28 28 25 26 27 29 28 28 29 30 31 31 29 30 31 33 33 32 28 26 25 26 27 26 25 26
13 15 16 17 17 19 17 20 21 23 23 24 23 26 26 26 27 27 27 27 27 28 27 25 27 27 29 29 31 29 29 30 29 29 30 30 30 26 25 25 26 26 26 26 26
10 11 14 17 18 19 21 22 22 22 24 25 24 25 25 26 26 26 26 25 25 26 26 26 27 28 29 27 30 30 26 28 26 24 24 30 26 24 24 24 24 25 25 26 26

GFSSW_925_temp_075.txt.gz
Temp
19 20 21 22 23 23 23 24 24 25 26 26 26 27 27 27 27 25 34 35 32 30 27 30 32 33 34 36 38 39 38 39 40 39 39 40 39 39 39 37 37 37 37 36 32
18 19 20 21 22 23 23 24 24 25 26 26 26 26 27 27 26 33 34 33 32 31 30 33 35 35 37 38 40 39 40 40 41 41 40 40 40 39 39 38 37 36 36 34 32
18 18 19 20 21 22 23 23 24 25 25 26 27 27 27 27 32 38 33 33 32 32 34 35 36 37 38 41 41 41 40 41 41 41 41 41 39 40 39 38 38 37 35 35 33
18 18 18 19 21 22 22 23 23 24 25 26 27 27 28 26 36 33 32 32 31 30 34 36 37 37 39 40 41 39 41 41 42 41 41 40 41 40 39 40 40 39 37 35 34
17 18 18 19 20 21 22 23 23 24 26 26 27 27 28 34 38 32 32 31 29 29 35 37 38 38 38 40 41 40 41 42 42 42 41 41 41 40 40 40 39 39 37 36 35
17 17 18 19 20 21 22 23 24 24 26 27 27 27 28 35 34 30 29 27 31 33 36 37 38 39 39 39 39 41 40 41 42 42 41 40 41 41 40 41 39 38 37 37 36
16 18 18 19 20 21 22 23 24 25 26 27 27 26 32 35 35 31 31 31 33 35 37 38 38 39 40 39 41 40 39 41 42 42 41 41 40 40 41 40 39 38 37 37 36
16 17 17 18 19 21 22 24 24 26 26 27 27 25 33 35 35 34 33 33 34 36 36 38 37 39 39 40 40 39 40 39 42 41 41 40 38 40 42 41 39 38 38 37 36
14 16 18 18 19 20 22 24 25 26 25 26 26 30 35 32 34 35 35 36 36 36 36 37 37 38 39 38 38 39 38 39 41 41 41 40 39 41 42 41 39 39 38 37 37
14 15 17 18 19 20 23 25 25 24 24 24 28 32 35 36 37 36 36 36 38 37 37 37 37 37 38 38 37 38 39 40 40 41 41 40 40 42 42 41 40 40 39 38 37
14 14 16 18 19 21 23 26 29 29 29 34 36 35 37 37 35 36 37 36 37 38 36 37 37 37 38 39 39 39 39 39 40 41 40 39 40 41 42 42 42 41 40 38 38
14 15 15 17 19 21 21 29 28 26 28 34 35 36 37 36 36 37 37 36 36 36 37 37 37 38 39 39 39 38 38 38 39 40 40 40 39 41 41 42 42 42 41 39 39
14 14 16 18 20 21 25 26 25 26 29 33 35 36 36 37 36 37 38 37 37 36 37 37 38 39 38 38 37 38 37 38 38 40 41 39 39 39 41 42 42 42 42 41 39
14 14 15 17 20 23 26 25 25 26 28 33 35 36 37 37 36 38 39 38 37 37 38 38 39 38 37 37 37 37 39 39 38 38 37 40 37 39 41 41 42 42 42 41 41
14 14 15 15 15 24 25 24 25 27 27 35 36 37 38 36 37 38 38 38 36 37 37 37 38 37 37 37 38 37 39 38 38 38 38 38 38 39 41 40 41 42 41 41 41
14 14 15 18 18 21 23 24 26 27 28 34 36 35 35 37 37 38 39 39 38 37 38 38 39 39 38 38 38 39 38 38 38 38 36 38 38 39 40 40 41 42 41 40 40
14 15 14 12 23 22 22 25 27 28 33 33 34 35 35 35 36 37 36 36 36 34 35 37 37 38 38 37 38 38 37 35 35 36 36 39 39 39 41 41 41 40 40 40 39
15 17 15 16 20 20 23 26 26 30 32 34 34 35 35 36 36 36 36 35 37 36 36 35 35 37 38 37 37 37 37 36 34 36 38 40 37 39 41 41 41 41 40 39 39
15 20 21 21 19 20 25 26 28 30 33 32 33 33 33 35 36 36 36 36 37 37 35 36 36 39 39 39 38 37 36 38 37 38 37 39 39 40 41 40 41 41 38 37 36
12 19 23 21 20 22 25 25 29 32 32 31 31 33 33 35 35 35 36 37 37 38 38 37 35 39 39 39 39 38 39 36 37 34 34 38 38 39 39 39 39 38 36 35 35
14 24 22 21 20 24 26 27 29 31 31 30 31 32 33 33 34 35 36 37 38 38 39 38 37 37 38 37 37 37 37 37 38 38 36 36 37 39 39 38 38 36 35 34 34
20 24 21 21 23 27 27 28 25 30 31 31 31 31 31 32 32 33 35 36 37 37 37 38 37 35 36 38 38 39 37 37 36 35 37 37 37 39 38 38 38 36 35 34 34
21 25 23 22 24 28 28 28 29 29 29 30 30 31 32 31 31 33 34 35 35 35 36 37 36 35 35 37 38 37 38 38 38 37 35 35 35 38 38 36 35 35 34 34 34
21 25 26 24 26 26 27 27 28 29 29 29 30 31 31 30 32 31 33 35 34 35 26 32 36 34 35 35 37 36 36 37 37 36 36 37 36 36 34 34 34 34 34 33 33
22 25 25 26 27 27 27 27 26 27 29 29 29 29 29 29 30 31 33 34 34 26 33 34 33 35 36 37 37 37 37 37 37 37 36 36 32 33 33 33 33 34 34 33 33
22 23 24 25 25 26 23 27 27 26 28 28 28 29 31 29 30 31 33 33 33 34 34 34 32 34 34 36 37 36 37 38 38 37 37 37 31 33 33 33 33 33 33 33 33
21 21 21 23 26 26 26 26 27 27 27 29 29 30 30 31 32 33 34 34 33 32 32 32 32 32 33 36 35 35 36 37 37 38 37 34 33 34 32 31 31 31 32 32 33

GFSSW_925_temp_078.txt.gz
Temp
19 20 21 22 22 23 23 24 24 25 25 26 27 27 27 27 29 26 32 35 34 33 30 31 31 35 36 37 39 40 37 36 40 40 35 41 37 40 39 38 38 38 37 35 33
18 18 19 21 22 22 23 23 24 25 26 26 27 27 28 27 26 32 35 34 34 33 31 34 36 37 37 39 40 39 38 38 42 41 39 40 40 40 26 32 37 36 36 34 33
18 18 19 20 21 22 22 23 25 25 26 27 27 27 28 27 30 38 34 34 34 33 34 36 37 39 38 40 41 41 39 42 42 42 42 37 40 40 32 30 37 36 35 34 33
17 18 18 19 21 22 22 22 24 25 26 26 27 28 28 26 35 34 34 34 33 32 34 37 38 38 38 39 42 40 42 42 42 42 42 41 42 41 40 38 40 38 36 35 34
18 18 18 19 20 21 22 23 24 25 25 26 27 27 29 33 36 33 33 32 31 30 34 37 38 39 38 40 41 41 41 42 42 43 42 42 41 41 41 41 41 38 37 35 35
17 18 18 19 19 21 22 23 24 25 25 26 27 27 27 33 36 33 31 31 32 32 35 38 38 39 39 39 39 41 41 41 42 42 43 41 41 42 41 42 40 39 37 36 36
16 17 18 18 19 21 22 23 24 25 26 26 26 25 30 34 37 33 32 32 33 34 37 38 39 39 39 38 41 41 40 41 41 42 42 42 40 40 41 41 40 39 37 37 36
16 16 17 18 19 20 22 24 25 25 26 26 26 23 31 35 37 37 34 34 34 36 37 38 39 39 39 39 39 39 39 38 41 43 42 41 38 39 40 40 40 39 38 37 37
15 16 18 19 20 20 22 24 26 26 26 26 24 27 33 35 36 37 36 36 36 36 37 38 39 38 38 37 37 38 37 39 40 42 41 41 39 40 41 41 40 39 38 38 37
14 15 17 19 19 20 22 25 28 26 25 23 27 31 34 36 37 37 37 37 38 38 38 38 37 36 37 37 35 37 38 39 40 40 40 40 40 41 41 41 41 41 39 38 37
14 15 17 18 20 21 21 22 30 29 28 32 34 34 37 38 38 39 38 38 38 38 36 37 36 35 37 38 39 39 39 39 40 42 41 40 40 41 42 42 42 41 39 38 38
15 15 17 18 20 21 20 27 30 29 28 32 33 34 36 38 37 38 38 37 36 35 37 36 36 37 39 39 39 39 38 38 40 41 40 40 40 41 41 42 42 42 40 40 39
14 14 16 18 21 22 25 27 28 28 28 30 33 34 36 37 37 38 39 38 36 35 36 36 37 39 39 38 38 38 38 38 38 40 41 40 39 40 41 42 42 43 43 41 40
14 14 16 16 21 22 25 27 27 28 27 30 33 34 35 37 36 38 39 38 37 36 37 37 39 38 39 38 39 37 39 39 39 38 37 40 37 39 41 41 42 42 42 42 40
15 14 15 15 15 22 26 26 26 28 25 33 36 37 37 36 37 37 38 38 36 37 37 36 38 38 38 38 39 38 39 39 39 38 38 38 37 38 40 39 41 41 41 41 41
14 15 14 17 17 20 24 26 27 26 26 32 36 37 36 36 37 38 38 39 39 37 37 37 39 39 39 39 39 39 38 38 38 38 35 37 37 38 40 37 37 40 40 40 41
14 16 14 12 22 23 23 26 26 25 32 32 34 36 36 35 36 37 36 36 36 34 35 36 37 39 39 38 39 38 37 34 34 35 35 38 38 38 41 39 40 40 40 40 40
15 18 19 16 21 22 24 25 24 29 30 33 34 35 35 36 36 36 36 36 37 36 35 35 34 37 39 38 37 37 37 35 33 35 36 39 37 39 42 42 40 41 41 40 40
15 18 23 23 21 22 24 24 26 28 31 31 33 33 34 35 36 36 36 36 37 37 35 35 35 39 39 39 38 37 36 38 36 37 36 38 39 39 40 41 41 41 39 39 38
11 18 23 25 23 24 24 23 27 31 31 32 31 33 32 34 34 35 35 37 37 38 38 36 34 38 39 40 39 38 39 36 37 33 34 36 37 36 38 40 38 37 37 36 36
14 24 25 25 24 25 24 27 28 31 31 31 31 31 32 32 33 33 33 36 37 38 38 38 36 36 38 38 37 37 37 37 38 37 35 35 35 37 36 37 37 36 35 35 35
20 24 25 24 24 26 26 28 25 30 32 32 32 31 31 32 32 32 33 32 34 37 37 38 37 35 36 39 39 39 37 37 36 34 36 36 35 37 38 38 37 36 35 35 35
20 25 26 25 25 27 29 29 30 30 30 30 30 31 32 31 30 32 33 34 34 35 33 34 35 34 35 37 38 37 38 38 37 36 34 35 32 37 37 37 37 35 35 35 34
20 25 27 26 27 26 27 28 29 31 30 30 30 31 31 30 32 31 32 34 35 35 27 33 35 34 34 35 36 36 37 38 37 35 36 36 37 34 35 34 35 35 34 34 33
21 25 26 24 27 27 28 28 28 28 30 30 29 30 30 29 30 30 32 34 35 29 34 34 32 34 35 37 37 36 36 37 36 37 36 34 31 25 22 30 33 35 34 33 33
21 23 24 24 25 26 25 27 28 29 29 28 28 29 30 29 30 30 32 33 33 30 31 30 32 33 33 36 36 36 36 36 36 37 37 37 34 29 31 32 32 34 34 33 33
21 21 22 22 25 27 27 23 26 28 29 29 28 28 29 31 32 33 33 33 34 32 27 24 29 32 32 35 35 34 36 37 36 37 37 36 29 29 29 29 30 32 32 33 34

GFSSW_925_temp_084.txt.gz
Temp
19 19 19 21 22 22 22 23 24 25 25 25 25 26 27 27 29 28 25 34 34 32 30 28 28 28 28 28 29 30 28 29 32 34 35 32 33 33 34 33 34 32 30 29 31
18 19 20 21 21 22 22 22 23 24 25 26 26 26 27 27 26 25 35 34 34 33 31 28 29 29 28 29 31 29 27 32 34 36 35 34 35 33 33 33 31 29 30 30 30
18 19 20 20 21 21 22 22 23 24 24 25 26 27 27 28 26 31 35 35 34 34 33 32 32 32 30 32 32 31 30 34 36 38 36 34 34 33 32 31 30 29 29 29 29
18 18 19 20 21 21 22 23 24 24 24 25 25 26 27 27 30 34 34 35 33 32 32 32 32 31 31 31 33 33 34 35 36 39 36 34 32 32 33 33 32 30 30 29 29
18 18 18 19 20 21 22 23 24 24 24 24 24 25 27 25 27 34 34 33 32 31 29 30 31 31 31 32 33 33 34 35 35 35 36 34 33 34 33 34 32 31 30 29 28
18 18 19 20 20 21 22 23 24 25 25 24 24 24 24 26 32 32 33 32 31 29 30 30 31 32 32 32 32 33 33 34 35 35 35 35 36 33 33 34 32 31 30 29 29
16 17 18 19 20 21 22 23 25 25 25 25 25 23 21 26 32 31 31 32 32 31 29 31 32 32 31 31 33 33 32 33 35 34 35 36 35 35 34 34 32 31 30 30 29
15 16 17 18 19 20 21 23 25 26 25 25 25 21 20 30 31 32 31 31 32 31 31 33 33 31 32 33 31 31 31 30 34 34 35 35 33 35 33 33 31 31 31 30 29
16 16 16 18 19 19 21 24 26 26 24 23 22 21 22 30 30 34 31 30 31 32 32 32 33 31 32 30 27 27 28 30 32 35 34 36 34 35 34 33 31 31 31 31 30
16 17 18 19 20 20 22 25 26 25 23 21 22 23 25 29 31 33 34 33 30 30 31 31 30 29 27 26 26 28 28 29 31 34 34 35 34 34 33 33 32 32 31 31 30
15 16 17 18 20 20 22 24 20 21 24 24 25 25 27 29 29 31 33 33 32 31 29 29 28 27 28 28 29 29 29 29 32 34 34 34 33 36 35 33 33 32 31 31 31
14 15 16 18 20 20 20 18 22 23 19 24 26 27 28 28 28 29 31 30 30 30 29 29 27 30 31 31 31 30 30 30 32 34 32 33 33 33 33 34 33 32 32 32 32
14 14 15 17 20 20 18 21 22 22 20 23 25 26 26 27 28 29 30 30 29 30 30 29 31 32 31 31 31 30 29 31 31 33 33 33 31 31 33 34 34 32 33 33 32
15 14 14 15 20 17 19 22 23 22 18 21 25 26 27 28 27 31 31 30 30 31 30 29 32 32 32 32 31 28 32 32 32 31 29 31 28 29 31 31 32 32 32 32 32
14 14 14 14 14 13 22 22 22 23 19 27 28 30 30 27 29 30 32 30 29 30 29 30 31 30 31 32 33 31 33 32 33 31 29 30 27 27 30 32 32 33 32 32 32
14 14 14 14 12 20 20 21 21 19 20 26 29 28 28 29 28 30 32 31 31 30 31 30 32 32 32 33 33 34 32 30 27 26 27 28 28 31 29 32 32 33 31 32 32
14 15 15 12 15 21 20 18 18 19 24 26 26 26 26 29 28 28 29 29 28 28 28 30 30 32 33 31 32 33 27 26 27 26 25 28 28 30 31 30 32 32 31 32 33
14 16 17 17 20 19 19 17 20 23 24 26 26 26 27 28 29 29 29 27 29 28 27 26 28 30 33 30 31 30 28 25 26 26 27 28 28 31 32 34 34 31 32 31 32
15 17 16 22 21 18 15 16 18 22 25 25 25 24 26 28 28 27 28 29 29 28 28 27 28 31 32 33 32 31 30 27 26 26 25 26 28 30 31 32 31 32 31 30 29
13 13 16 22 22 19 15 16 20 24 24 25 23 25 25 26 25 25 26 29 30 31 29 30 27 31 33 33 34 31 31 30 23 28 27 26 28 28 31 31 30 30 29 27 27
13 12 22 23 21 15 16 16 22 24 25 25 24 24 25 25 25 25 26 28 29 29 29 29 26 29 29 31 30 30 29 29 26 24 25 25 27 29 27 29 28 28 27 27 27
11 13 22 22 17 14 16 20 23 25 26 24 25 26 26 25 24 25 26 27 30 28 27 27 26 25 30 31 32 32 32 29 29 27 24 25 27 27 27 27 29 28 27 27 26
8 10 23 22 17 16 18 21 23 24 25 26 26 27 25 25 24 25 26 29 29 27 27 27 25 24 27 29 32 31 31 31 26 23 25 25 26 27 25 25 28 28 27 25 25
8 13 15 15 15 19 18 20 22 25 25 25 25 25 24 23 24 24 25 28 29 29 26 25 23 24 24 26 28 30 33 31 27 28 27 25 27 27 25 24 23 24 24 25 25
8 13 16 14 16 16 19 20 21 22 23 22 23 24 24 23 22 22 24 26 28 28 28 23 23 23 24 27 28 32 32 31 30 29 29 28 27 25 22 22 22 23 25 26 26
10 13 12 13 15 17 18 20 22 23 23 22 22 23 23 24 22 21 22 23 27 28 26 23 23 22 26 26 28 31 28 30 24 23 25 27 26 23 23 22 23 24 25 25 26
14 15 12 13 14 16 17 19 21 22 23 24 23 22 22 22 21 21 20 21 24 25 25 23 21 22 25 24 27 26 25 24 22 21 20 25 21 22 23 24 23 22 24 24 23

GFSSW_925_temp_087.txt.gz
Temp
18 19 19 20 21 21 21 22 23 23 24 24 25 25 26 27 28 26 24 33 32 30 29 27 25 26 26 27 28 27 26 27 30 32 32 33 32 33 32 30 31 30 28 28 26
18 18 19 19 20 21 21 22 23 23 24 24 25 25 26 27 26 23 34 32 32 30 28 26 26 26 25 26 28 27 25 28 30 32 33 33 32 32 31 30 30 29 29 27 25
18 19 20 20 21 21 21 22 23 23 24 24 25 25 26 26 25 31 34 32 32 31 30 29 29 28 26 28 28 28 28 31 32 33 35 33 33 32 31 29 29 29 28 26 25
17 18 19 20 20 21 22 22 23 23 24 24 24 25 26 26 29 32 33 33 32 30 30 31 29 29 29 29 31 31 31 32 32 34 33 33 33 32 32 32 32 29 29 27 25
17 18 18 18 19 20 21 23 23 23 24 24 24 25 26 25 26 33 32 32 31 28 29 29 29 29 29 30 31 31 32 33 32 32 33 33 32 33 32 32 31 29 29 28 26
17 17 18 19 19 20 21 22 23 24 24 24 24 24 24 25 31 32 31 30 30 28 28 28 29 29 30 30 31 32 32 32 32 33 33 32 32 33 33 31 30 29 28 28 28
16 17 18 18 19 20 21 22 24 24 24 24 24 22 21 25 31 31 31 30 31 30 28 29 30 30 30 31 32 32 31 31 32 33 33 34 32 31 34 30 29 29 29 28 28
15 16 17 18 19 20 22 24 25 24 25 24 23 20 21 29 29 30 30 29 29 29 30 31 30 29 30 31 30 32 29 29 32 32 34 34 31 34 33 30 29 29 29 29 27
15 15 16 17 18 19 21 23 24 24 23 21 20 19 22 28 28 29 29 28 29 29 29 30 31 28 30 29 27 25 28 29 30 33 33 32 31 34 31 31 30 29 29 29 28
15 16 16 18 18 19 22 24 23 23 22 20 21 22 25 27 28 29 29 30 28 28 29 29 27 27 25 25 25 27 28 27 28 31 31 31 30 33 31 32 31 30 29 29 28
14 15 16 17 18 19 22 23 17 18 21 21 21 23 24 26 27 28 29 28 28 28 26 28 26 25 26 26 29 28 28 27 29 31 32 31 30 32 32 31 31 30 29 29 29
14 14 14 16 18 20 20 17 19 19 15 20 21 23 25 26 25 27 29 27 27 26 27 27 25 27 28 28 28 28 28 27 28 30 29 29 30 30 31 32 31 30 29 29 30
13 14 14 16 18 19 17 20 19 18 18 21 22 23 24 25 25 26 27 27 27 27 26 27 28 29 30 29 29 27 27 28 28 30 30 30 29 30 31 32 30 31 31 30 30
13 14 14 15 18 16 18 20 21 19 17 21 25 25 26 26 25 28 29 28 27 27 26 27 29 30 29 29 28 26 28 30 30 28 28 30 26 28 30 29 29 29 30 30 30
13 13 14 13 13 13 20 21 21 21 20 26 26 29 27 26 28 29 29 27 27 27 28 27 29 28 29 30 30 29 30 29 29 27 28 29 25 27 29 30 30 30 29 31 31
13 14 14 13 12 19 19 20 21 19 20 24 26 26 25 27 27 28 28 29 28 28 28 27 29 29 30 31 30 31 31 27 24 23 25 27 26 27 29 30 31 31 30 29 30
13 15 15 12 15 19 19 17 18 19 23 24 23 24 23 25 26 27 28 28 26 26 26 28 29 30 31 30 30 30 25 25 24 24 26 25 26 26 29 31 30 32 31 29 30
14 17 17 16 17 18 18 17 20 22 22 24 24 23 24 25 26 26 25 26 26 28 24 25 26 29 30 29 28 27 25 23 26 25 27 25 26 29 31 30 29 30 30 28 29
16 17 18 20 20 18 15 17 19 20 23 23 22 23 23 25 25 24 24 25 27 28 28 25 26 30 30 31 30 29 27 27 26 23 24 24 26 28 30 29 28 28 28 28 28
14 13 17 20 20 18 15 17 18 20 23 23 22 24 22 24 24 22 24 26 26 28 28 28 26 28 30 31 30 29 29 28 24 27 26 25 26 26 28 28 26 28 28 27 26
14 11 19 19 19 14 16 15 19 21 22 22 22 22 23 24 24 24 24 26 27 27 26 26 23 26 29 28 28 28 28 27 24 22 24 24 25 25 27 26 25 24 24 23 23
10 14 17 18 16 11 16 18 20 22 23 22 23 22 23 24 24 25 25 26 27 26 26 26 21 24 27 29 30 29 28 28 26 25 21 22 25 26 26 26 25 25 25 24 23
7 8 18 20 16 15 16 19 21 22 23 24 24 24 24 25 24 24 24 27 27 26 26 26 22 22 24 27 28 30 30 27 23 21 23 25 26 24 25 26 26 25 25 24 24
8 13 13 12 12 18 18 18 20 23 23 22 23 22 21 23 22 23 22 25 26 26 24 23 21 23 23 25 26 24 28 28 25 23 23 24 26 27 25 24 24 25 27 26 25
7 12 13 14 15 15 16 18 19 19 22 21 22 21 22 22 19 20 22 22 25 26 25 23 24 21 22 24 25 26 27 28 26 24 26 27 25 24 22 19 20 22 23 24 25
10 11 10 11 12 15 15 17 18 19 21 21 21 21 21 21 20 19 21 21 22 23 22 20 23 22 22 26 26 26 25 26 24 23 25 23 23 19 20 20 20 20 21 22 23
11 11 10 11 12 15 15 17 18 17 21 20 20 20 20 21 20 19 19 19 20 21 21 23 23 23 23 24 24 24 23 23 21 21 21 23 20 20 20 20 19 19 19 19 20

GFSSW_925_temp_093.txt.gz
Temp
18 18 18 19 20 20 21 22 22 23 23 24 24 24 25 26 25 21 23 29 28 27 23 24 25 25 25 27 28 28 31 33 34 34 35 35 34 34 33 32 31 31 31 30 26
17 17 18 18 19 20 20 21 22 22 23 24 24 24 25 26 23 22 30 29 28 26 24 26 26 26 27 28 29 29 31 33 34 35 35 36 35 35 32 32 31 31 29 27 25
16 17 17 18 19 19 20 21 22 23 23 24 24 24 25 26 25 32 30 30 27 27 26 27 27 28 28 29 29 30 31 33 34 35 35 35 35 35 34 32 34 32 30 27 26
17 16 17 18 19 19 20 20 21 22 23 24 25 25 25 25 31 30 30 31 29 27 27 27 28 28 29 29 30 30 31 33 34 34 34 35 36 34 35 37 35 34 31 28 27
16 16 16 18 18 19 20 21 22 23 23 25 25 25 25 27 29 30 29 29 25 26 29 29 28 29 30 30 31 30 32 34 34 34 34 34 35 35 34 36 34 32 29 28 28
14 15 16 17 17 18 20 21 22 22 24 25 25 24 24 26 29 29 28 26 25 25 28 29 30 30 31 31 31 33 33 33 34 35 34 35 35 33 36 36 34 30 29 30 29
14 15 16 17 18 19 20 22 21 23 23 25 24 23 23 28 27 27 27 27 27 27 28 28 29 30 30 30 32 32 31 34 34 35 35 35 36 35 36 34 34 31 30 30 29
15 16 16 17 17 18 20 22 23 22 22 24 21 21 26 26 27 27 28 27 27 26 27 28 28 30 30 31 31 31 31 32 35 34 35 34 35 36 36 34 33 33 31 30 29
13 14 14 15 17 18 21 21 23 21 22 20 19 21 27 27 27 27 27 28 27 26 25 28 28 30 29 30 30 30 31 32 33 33 34 34 34 36 35 35 34 33 31 31 29
12 13 15 16 17 19 22 22 21 21 20 20 19 23 27 29 27 27 27 27 28 28 27 28 29 29 29 30 30 31 31 31 31 34 33 34 34 35 35 34 35 34 31 32 30
12 13 14 16 17 20 22 21 22 23 20 23 24 24 26 25 24 26 26 27 28 29 29 28 28 28 30 31 32 32 30 31 31 33 32 33 33 34 35 35 35 33 32 31 32
12 12 14 16 17 20 20 19 17 17 20 21 20 21 22 23 26 27 27 28 28 29 28 27 28 29 30 31 30 30 30 30 31 32 31 33 33 34 34 34 35 34 33 31 32
12 12 13 16 18 18 17 16 15 15 20 23 24 24 26 25 27 28 27 27 28 28 29 29 30 29 29 30 29 30 30 30 31 32 32 31 32 33 35 34 34 35 34 33 32
12 12 13 16 17 15 17 16 16 15 24 27 27 28 27 26 27 28 27 29 27 28 28 29 30 29 29 29 30 30 31 31 31 31 31 31 31 33 34 33 34 35 34 33 32
12 12 13 14 13 14 17 17 17 17 26 27 27 27 27 28 28 29 27 28 28 28 28 29 29 29 29 30 30 30 31 31 31 31 30 32 30 33 32 33 36 36 36 36 35
13 14 13 13 12 17 17 17 17 24 25 25 26 26 26 27 28 28 28 28 28 27 28 28 29 29 31 31 31 32 31 29 27 30 29 32 31 32 33 34 36 36 36 35 36
14 15 15 13 17 16 17 19 24 25 24 24 25 25 25 26 28 27 27 28 28 27 27 28 29 30 30 30 30 30 30 29 29 29 30 30 29 32 34 35 34 36 36 35 35
16 17 17 16 16 17 17 24 24 23 23 24 24 25 26 26 28 27 28 28 28 27 27 28 28 30 31 31 30 30 31 29 27 29 30 28 30 33 34 34 33 32 33 33 33
16 17 17 17 18 17 22 24 23 23 23 23 24 25 26 26 25 27 27 27 27 27 26 28 29 30 30 32 31 28 29 31 27 27 28 31 32 32 33 33 33 32 31 31 31
14 15 16 17 17 17 23 21 22 22 23 23 23 24 24 25 26 26 27 27 27 27 26 27 27 30 31 31 30 30 31 30 29 26 26 30 30 31 33 34 31 30 28 27 28
14 19 17 17 17 21 22 21 21 23 22 23 23 23 24 24 25 26 26 27 27 27 27 27 26 29 28 30 30 29 29 29 30 28 29 28 30 32 30 29 28 28 26 26 27
13 21 17 18 21 16 21 20 20 23 23 23 23 23 23 24 25 25 26 26 27 26 26 26 27 27 29 29 28 29 29 29 29 26 29 29 31 30 29 28 27 27 26 25 26
14 15 17 17 21 20 19 21 21 22 23 23 23 24 24 24 24 24 25 27 26 26 26 27 26 27 28 29 29 28 27 28 27 27 30 30 31 29 27 27 25 25 26 25 23
14 19 18 17 15 19 20 21 21 22 22 22 23 23 23 24 23 24 25 25 25 26 23 24 25 26 27 27 27 26 26 26 26 26 30 31 31 30 26 24 23 22 24 25 25
13 16 14 19 18 18 18 19 20 21 21 22 22 23 22 22 23 23 24 25 26 25 25 25 25 25 26 26 27 26 27 26 25 26 26 31 28 24 22 20 21 21 22 22 24
15 15 13 15 14 16 16 19 20 20 20 22 21 22 22 22 23 22 23 23 24 25 24 24 25 25 25 27 27 27 26 25 25 25 26 27 26 21 20 21 21 21 22 21 21
9 9 14 13 15 17 19 18 19 18 20 21 20 20 22 23 21 21 22 22 22 21 22 22 24 24 25 26 27 26 25 24 24 24 22 24 23 20 20 22 22 22 22 23 23

GFSSW_925_temp_096.txt.gz
Temp
17 17 18 19 19 20 20 21 21 22 23 23 24 25 25 25 24 19 28 31 28 27 25 27 28 29 30 32 32 34 35 37 38 38 38 40 39 40 38 37 35 35 35 35 32
16 16 18 18 19 19 20 20 21 22 22 23 24 24 25 25 22 28 30 29 29 26 28 29 31 30 32 33 34 34 37 38 39 39 38 39 39 39 38 37 36 35 35 33 30
16 16 17 18 18 19 20 21 21 22 22 23 24 24 25 25 29 35 30 29 29 27 30 31 32 32 33 35 35 36 35 38 38 39 39 39 39 40 39 38 38 36 34 33 31
15 16 16 17 18 19 19 20 21 22 22 23 24 24 25 22 33 30 29 30 27 27 30 31 33 32 34 34 36 34 37 37 38 38 38 38 39 39 39 40 40 39 36 34 33
15 16 16 17 17 18 19 20 21 21 22 24 24 24 24 30 33 27 29 27 24 28 31 33 33 34 34 36 36 35 36 38 38 38 38 38 38 39 39 40 39 38 36 34 34
15 15 16 17 17 18 19 19 21 22 23 24 24 24 26 30 29 27 26 24 28 30 32 33 34 34 34 34 35 36 37 37 37 38 38 37 38 39 40 40 39 36 36 36 35
14 15 16 17 18 19 19 21 21 23 23 24 24 22 28 31 28 27 28 28 29 30 33 32 33 33 35 34 36 35 34 36 38 38 38 38 38 39 40 39 38 37 36 36 35
15 16 16 16 17 19 20 21 22 23 23 24 22 22 30 28 28 28 29 30 29 30 31 32 32 33 33 34 34 34 36 35 38 39 38 37 37 40 40 40 38 39 38 36 35
15 15 15 16 17 18 20 21 21 21 22 22 22 26 31 28 29 30 30 31 31 30 30 30 32 33 34 32 34 35 34 36 37 39 37 37 36 39 40 39 38 39 39 37 36
13 14 13 15 17 19 20 21 21 21 21 20 22 27 31 31 30 30 30 30 31 32 31 30 32 33 33 34 33 35 35 36 36 37 38 36 37 38 39 39 39 39 39 38 36
12 12 13 15 17 20 21 23 27 28 28 28 29 28 31 29 29 30 30 30 31 31 32 32 32 32 33 35 34 35 35 35 36 37 36 36 36 37 38 39 39 40 40 39 37
12 13 13 16 18 20 21 25 21 20 26 28 27 27 28 27 31 31 30 31 31 31 33 32 31 33 35 34 34 34 34 34 35 36 36 36 36 37 37 38 39 40 40 39 38
13 13 14 18 19 19 20 20 18 19 26 30 30 30 31 29 31 32 31 32 31 32 33 32 34 34 33 32 32 33 33 34 34 35 36 35 35 36 37 38 39 39 40 40 38
13 13 14 17 19 18 22 18 18 18 30 30 31 31 31 31 31 32 31 32 31 32 32 33 34 33 33 32 33 32 34 34 34 34 33 37 33 35 37 37 38 39 40 40 38
13 13 14 14 15 22 19 18 18 21 31 30 31 31 32 31 31 32 31 31 31 32 31 33 32 32 32 33 33 32 34 34 34 34 34 34 34 35 37 36 38 39 41 40 40
14 15 15 13 14 18 17 18 20 28 30 29 30 30 31 32 32 32 32 31 32 31 32 32 33 32 32 33 33 34 33 33 33 33 32 34 34 35 36 37 38 40 40 41 41
15 17 17 14 22 17 17 23 29 30 28 28 29 30 31 31 31 31 32 31 31 30 32 33 33 34 33 32 34 33 32 31 30 31 31 34 34 35 36 37 38 38 39 40 40
16 17 17 17 16 16 20 28 27 27 28 28 28 30 30 30 31 31 31 31 31 31 31 31 31 33 33 33 33 33 33 31 28 28 29 31 32 34 37 38 37 37 38 38 39
17 18 19 19 17 17 26 28 28 27 27 27 29 29 30 30 29 31 31 30 30 30 29 30 31 33 34 34 34 32 31 34 31 32 31 30 32 36 37 37 37 36 36 36 34
14 20 22 18 17 21 27 25 27 27 27 27 27 28 28 29 30 30 30 30 30 31 31 30 29 33 33 34 34 33 34 31 31 28 29 30 31 33 35 36 36 35 35 33 32
17 24 21 19 19 26 27 27 26 27 26 27 27 27 28 28 29 29 30 30 30 30 31 31 30 31 33 33 33 33 32 32 33 31 29 31 32 36 35 35 34 34 33 31 31
20 25 20 20 25 26 27 26 19 27 27 27 27 27 27 27 28 28 29 29 29 30 29 30 30 29 31 33 32 33 32 32 32 30 32 32 32 37 35 35 32 32 31 28 28
21 23 21 21 26 26 25 26 25 26 26 27 27 27 27 27 26 28 28 30 29 29 28 29 29 29 31 32 32 32 31 32 32 31 30 31 32 36 33 33 30 29 29 27 26
20 24 24 24 23 24 25 26 25 25 26 26 26 27 27 27 28 27 27 29 29 29 24 27 28 28 29 30 31 30 31 31 29 30 31 32 32 34 32 29 27 26 26 26 28
20 22 20 24 24 24 23 24 25 25 25 26 26 26 26 25 27 27 27 28 28 28 28 28 26 28 29 30 30 30 30 31 30 31 29 31 31 33 26 23 23 24 24 24 25
20 21 21 22 21 22 19 24 24 25 25 26 25 26 26 25 26 25 26 26 26 27 27 28 26 27 27 29 30 29 30 30 30 30 30 30 30 26 24 26 24 26 27 25 23
16 16 19 18 22 22 24 24 24 23 25 25 24 24 25 25 25 25 26 26 26 26 25 25 26 26 26 29 29 28 30 30 29 29 28 28 27 25 25 25 25 25 26 26 25